[[[{"header":{"parameterUnit":"kt","parameterCategory":2,"dx":1,"dy":1,"la1":30.253999710083008,"la2":30.299108505249023,"lo1":-89.0895004272461,"lo2":-89.04439544677734,"nx":28,"ny":28,"refTime":"2022-10-22T21:00:00:Z","depth":"0","parameterNumber":2,"parameterNumberName":"U-component_of_CURRENTS"},"data":[0.2924,0.2913,0.297,0.2957,0.3001,0.2998,0.3047,0.3123,0.3297,0.3533,0.3746,0.4015,0.4434,0.4755,0.4763,0.4699,0.4274,0.4153,0.4007,0.4453,0.4478,0.4502,0.436,0.4258,0.4257,0.3219,0.3211,0.3205,0.3022,0.3061,0.3097,0.3155,0.3173,0.3271,0.34,0.3431,0.3575,0.3896,0.4142,0.4489,0.474,0.5009,0.5271,0.5123,0.4896,0.4939,0.4536,0.4437,0.5096,0.4977,0.5005,0.5005,0.5005,0.5005,0.5005,0.5005,0.3194,0.3193,0.3247,0.3305,0.3362,0.3434,0.3467,0.3642,0.3802,0.407,0.435,0.4584,0.4969,0.5402,0.548,0.551,0.539,0.5315,0.5237,0.501,0.4762,0.5367,0.5622,0.5623,0.5624,0.5624,0.5625,0,0.3321,0.3367,0.3388,0.3456,0.3515,0.3573,0.3699,0.3783,0.4021,0.42,0.4458,0.4649,0.5095,0.5291,0.5575,0.5664,0.5348,0.5623,0.5418,0.5039,0.4675,0.4452,0.505,0.5448,0.5448,0.5448,0.5448,0.5447,0.3438,0.346,0.3552,0.3574,0.3594,0.3688,0.3752,0.3926,0.4031,0.4341,0.4433,0.4757,0.4941,0.5328,0.548,0.5687,0.5401,0.5619,0.5432,0.5154,0.4975,0.4692,0.454,0.5446,0.5446,0.5446,0.5446,0,0.3497,0.3537,0.3568,0.3667,0.3701,0.3759,0.3867,0.3967,0.414,0.4305,0.4379,0.4618,0.4887,0.5052,0.5298,0.5282,0.5306,0.5467,0.5312,0.5239,0.502,0.4896,0.4971,0.4825,0.559,0.5591,0.5593,0,0.3534,0.3565,0.3594,0.3598,0.3715,0.3736,0.3879,0.397,0.4135,0.4253,0.4384,0.4516,0.4686,0.4873,0.4917,0.5098,0.5185,0.5075,0.5021,0.4907,0.4884,0.4709,0.4571,0.5163,0.5161,0.5159,0.5157,0,0.3492,0.3488,0.3557,0.3553,0.3582,0.3668,0.3738,0.3873,0.3957,0.4163,0.4225,0.4467,0.4557,0.4709,0.4762,0.4643,0.5047,0.4858,0.4888,0.4878,0.4842,0.4815,0.5031,0.5154,0.5153,0.5153,0.5152,0,0.341,0.3394,0.3429,0.3479,0.3482,0.3516,0.3699,0.3762,0.3923,0.3957,0.4101,0.4108,0.4356,0.4205,0.451,0.4353,0.4391,0.4411,0.4418,0.4364,0.4101,0.4255,0.4608,0.4391,0.4343,0.4337,0.4332,0,0.3428,0.3366,0.3304,0.3343,0.3331,0.3334,0.3433,0.3496,0.3542,0.3652,0.3741,0.383,0.3758,0.3781,0.3928,0.3973,0.4133,0.3923,0.4038,0.4044,0.3992,0.4344,0.4262,0.451,0.4255,0.4263,0.4269,0,0.3379,0.324,0.3236,0.3249,0.3183,0.3138,0.3234,0.3313,0.3426,0.3379,0.3554,0.3611,0.3604,0.362,0.3581,0.3707,0.399,0.3574,0.3575,0.3683,0.4274,0.4234,0.428,0.3907,0.3918,0.3926,0.4208,0,0.3344,0.3287,0.3231,0.3159,0.3115,0.3082,0.3054,0.3062,0.3076,0.3084,0.3206,0.314,0.3193,0.3188,0.3128,0.3396,0.331,0.321,0.3102,0.3323,0.34,0.345,0.2807,0.2803,0.28,0.2797,0,0,0.3404,0.3305,0.3156,0.3078,0.3074,0.2988,0.2991,0.296,0.2855,0.2917,0.2825,0.2868,0.2799,0.2961,0.303,0.2919,0.2947,0.2869,0.3174,0.3216,0.3255,0.3344,0.3395,0.279,0.2789,0.2788,0.2787,0,0.3376,0.3264,0.3193,0.3115,0.2998,0.2955,0.2953,0.2829,0.2843,0.2791,0.2799,0.2835,0.2661,0.273,0.2728,0.2848,0.2783,0.2795,0.2994,0.3136,0.3183,0.3224,0.3321,0.3369,0.2778,0.2778,0.2779,0,0.341,0.3299,0.3258,0.3081,0.3001,0.2956,0.2896,0.28,0.2838,0.2681,0.2684,0.2631,0.2568,0.2556,0.2543,0.2467,0.2631,0.2477,0.2495,0.2585,0.2729,0.2781,0.2828,0.2236,0.2235,0.2234,0,0,0.3401,0.3305,0.3172,0.3073,0.3021,0.2927,0.2865,0.2828,0.2737,0.2706,0.2621,0.2568,0.2558,0.2501,0.2438,0.2362,0.2407,0.2416,0.2442,0.2463,0.2562,0.2712,0.2762,0.2229,0.2229,0.2229,0,0,0.3402,0.3245,0.3239,0.3096,0.3007,0.2853,0.2789,0.2777,0.2693,0.2711,0.2604,0.2571,0.2564,0.245,0.2404,0.2427,0.232,0.2322,0.2488,0.2517,0.2542,0.269,0.2302,0,0,0,0,0,0.3362,0.3264,0.3261,0.3226,0.3007,0.286,0.2829,0.2759,0.2795,0.2751,0.27,0.262,0.2443,0.2396,0.2351,0.2431,0.2167,0.2178,0.2188,0.2388,0.2421,0.2449,0,0,0,0,0,0,0.3348,0.3304,0.3263,0.3109,0.3059,0.2862,0.2867,0.2843,0.2798,0.2798,0.2637,0.2612,0.2514,0.2408,0.237,0.2451,0.2314,0.2171,0.2181,0.2189,0.24,0.2427,0.245,0,0,0,0,0,0.3335,0.33,0.2975,0.3108,0.3065,0.2948,0.287,0.2851,0.2819,0.2652,0.2629,0.278,0.2514,0.2477,0.2385,0.2474,0.234,0.2326,0.2177,0.2185,0.2191,0.2413,0,0,0,0,0,0,0.3326,0.3267,0.2963,0.2947,0.3152,0.2958,0.2927,0.2858,0.2675,0.2652,0.2785,0.2787,0.2512,0.2484,0.2456,0.2495,0.2361,0.2347,0.2338,0.2183,0.2189,0.2194,0,0,0,0,0,0,0.3286,0.3253,0.2955,0.3014,0.3003,0.2968,0.2941,0.2786,0.2673,0.2816,0.2813,0.2788,0.2559,0.2488,0.2467,0.2226,0.2377,0.2363,0.2354,0.2348,0.2188,0.2192,0,0,0,0,0,0,0.327,0.3242,0.3017,0.3009,0.2999,0.2803,0.2828,0.2608,0.2726,0.2825,0.2736,0.274,0.2564,0.254,0.2474,0.2243,0.223,0.2376,0.2367,0.2361,0.2356,0,0,0,0,0,0,0,0.3258,0.3469,0.3069,0.3005,0.2997,0.2795,0.2789,0.2784,0.2727,0.2731,0.2735,0.2738,0.2453,0.2438,0.2423,0.2256,0,0,0.2377,0.2371,0,0,0,0,0,0,0,0,0.3479,0.3472,0.3068,0.3065,0.3062,0.2794,0.279,0.2785,0.2728,0.2731,0.2734,0.2737,0.2449,0.2437,0.2425,0,0,0,0,0,0,0,0,0,0,0,0,0,0,0,0.3068,0.3065,0,0.2793,0.279,0.2786,0.2728,0.2731,0.2733,0.2736,0.2446,0.2436,0.2426,0,0,0,0,0,0,0,0,0,0,0,0,0,0,0,0,0,0,0,0,0,0,0,0,0,0,0,0,0,0,0,0,0,0,0,0,0,0,0,0,0,0,0,0,0,0,0,0,0,0,0,0,0,0,0,0,0,0,0,0,0,0,0,0,0,0,0,0,0]}],[{"header":{"parameterUnit":"kt","parameterCategory":2,"dx":1,"dy":1,"la1":30.253999710083008,"la2":30.299108505249023,"lo1":-89.0895004272461,"lo2":-89.04439544677734,"nx":28,"ny":28,"refTime":"2022-10-22T21:00:00:Z","depth":"0","parameterNumber":3,"parameterNumberName":"V-component_of_CURRENTS"},"data":[0.1707,0.1828,0.1914,0.2128,0.2242,0.2462,0.2611,0.2873,0.3106,0.344,0.3548,0.358,0.2841,0.0741,-0.0714,-0.1009,-0.1368,-0.143,-0.1593,-0.1208,-0.1151,-0.1096,-0.1127,-0.1654,-0.1656,-0.2197,-0.2204,-0.2209,0.1662,0.1762,0.1886,0.2058,0.2174,0.2237,0.2461,0.2636,0.2907,0.3163,0.3344,0.3107,0.2357,0.1569,0.0391,-0.0213,-0.0379,-0.0537,-0.0684,-0.071,-0.0038,-0.003,-0.0332,-0.0332,-0.0332,-0.0332,-0.0331,-0.0331,0.1629,0.1703,0.1831,0.1952,0.2061,0.222,0.2355,0.2531,0.2722,0.2985,0.2972,0.3106,0.2508,0.1794,0.1327,0.0452,0.0535,0.0196,0.0071,0.0024,-0.006,0.0717,0.0563,0.0563,0.0564,0.0564,0.0564,0,0.1614,0.166,0.1762,0.189,0.1997,0.2122,0.2268,0.2352,0.2501,0.2618,0.277,0.2801,0.2443,0.209,0.1531,0.1219,0.0703,0.084,0.0492,0.0261,0.0148,-0.0011,0.0797,0.0751,0.0752,0.0753,0.0754,0.0755,0.1576,0.1646,0.1794,0.1859,0.1912,0.2052,0.2139,0.2243,0.2335,0.2473,0.2531,0.2465,0.2462,0.2044,0.1632,0.1217,0.0947,0.0887,0.0859,0.051,0.0288,0.0208,0.0138,0.077,0.0768,0.0767,0.0765,0,0.1551,0.1608,0.1737,0.1874,0.1917,0.2019,0.2139,0.2233,0.2295,0.2393,0.2415,0.2411,0.2272,0.2025,0.173,0.15,0.1061,0.1095,0.1079,0.0988,0.0495,0.0363,0.0106,0.0006,0.0844,0.0842,0.0841,0,0.1496,0.1593,0.1663,0.1713,0.1889,0.192,0.2083,0.2131,0.2198,0.2277,0.224,0.2286,0.2083,0.1949,0.1698,0.1416,0.1458,0.1152,0.1055,0.1042,0.1031,0.0651,0.0502,0.1192,0.1194,0.1195,0.1196,0,0.1364,0.1455,0.1601,0.1623,0.1702,0.1807,0.1881,0.1945,0.2004,0.2066,0.2071,0.2087,0.2059,0.1883,0.1629,0.1591,0.1409,0.1314,0.1083,0.1072,0.0958,0.0936,0.0723,0.1198,0.1199,0.1199,0.12,0,0.1232,0.1265,0.1403,0.1509,0.1523,0.1603,0.1756,0.183,0.1876,0.1862,0.1893,0.1822,0.1879,0.1707,0.1595,0.1602,0.1408,0.1274,0.1261,0.1134,0.096,0.0769,0.0904,0.0567,0.1023,0.1023,0.1023,0,0.1151,0.1199,0.1157,0.1283,0.1314,0.1271,0.1401,0.1428,0.143,0.1486,0.1479,0.1552,0.1459,0.1468,0.1453,0.1343,0.13,0.1338,0.1016,0.1006,0.0926,0.1093,0.1071,0.0909,0.1024,0.1024,0.1024,0,0.1031,0.0959,0.0959,0.1006,0.0952,0.0926,0.1048,0.1109,0.119,0.1136,0.1269,0.1374,0.1278,0.1322,0.1288,0.1265,0.1285,0.1107,0.1099,0.1005,0.1146,0.1093,0.1086,0.1204,0.1206,0.1208,0.1024,0,0.095,0.0928,0.0894,0.0867,0.0832,0.0807,0.0763,0.0762,0.075,0.0742,0.0854,0.0821,0.0893,0.0925,0.0906,0.1053,0.0933,0.0864,0.0727,0.0892,0.0783,0.0784,0.0704,0.07,0.0696,0.0693,0,0,0.0913,0.0869,0.0691,0.0665,0.0664,0.0494,0.0538,0.0511,0.0428,0.0475,0.0402,0.0515,0.0497,0.0699,0.0791,0.0737,0.0646,0.0694,0.0822,0.0837,0.0851,0.0757,0.0762,0.0686,0.0684,0.0683,0.0682,0,0.0874,0.0746,0.072,0.0643,0.05,0.0459,0.0434,0.0308,0.032,0.0336,0.0356,0.0395,0.038,0.0469,0.051,0.0668,0.0515,0.067,0.0825,0.0789,0.081,0.0827,0.074,0.0748,0.0672,0.0673,0.0673,0,0.0849,0.0748,0.0711,0.0547,0.0458,0.0448,0.0329,0.0223,0.0289,0.0158,0.0238,0.0215,0.0229,0.0311,0.0329,0.0259,0.0358,0.034,0.0361,0.0376,0.033,0.0356,0.0379,0.0077,0.0076,0.0075,0,0,0.0833,0.0762,0.061,0.0531,0.0471,0.0358,0.0295,0.0247,0.0187,0.0172,0.014,0.0145,0.0203,0.0191,0.0194,0.0197,0.0112,0.0274,0.0302,0.0325,0.0353,0.0315,0.0341,0.0069,0.0069,0.0069,0,0,0.0831,0.0673,0.064,0.0536,0.043,0.0295,0.0243,0.0202,0.0168,0.0179,0.0134,0.0123,0.018,0.0107,0.0046,0.019,0.007,0.0077,0.0244,0.0276,0.0304,0.035,-0.0018,0,0,0,0,0,0.0745,0.0687,0.0658,0.0623,0.0434,0.0302,0.0277,0.0213,0.0213,0.0185,0.0186,0.0125,0.0118,0.0061,0.0036,0.0145,-0.0,0.0012,0.0024,0.024,0.0276,0.0307,0,0,0,0,0,0,0.073,0.0689,0.0658,0.052,0.0475,0.0304,0.0308,0.029,0.0216,0.0217,0.0133,0.0122,0.0093,0.0066,0.0045,0.0153,-0.0011,0.0005,0.0015,0.0024,0.0252,0.0282,0.0308,0,0,0,0,0,0.0718,0.0685,0.0405,0.052,0.0482,0.0369,0.0312,0.0296,0.0251,0.0164,0.0153,0.0205,0.0093,0.0074,0.0053,0.0168,0.0003,-0.0005,0.0011,0.002,0.0027,0.0267,0,0,0,0,0,0,0.0708,0.0684,0.0395,0.038,0.0548,0.0379,0.0354,0.0303,0.0204,0.0188,0.0235,0.0237,0.0092,0.0077,0.0062,0.0182,0.0014,0.0007,0.0002,0.0018,0.0024,0.003,0,0,0,0,0,0,0.07,0.0672,0.0388,0.0426,0.0415,0.0388,0.0366,0.028,0.0206,0.0285,0.028,0.0237,0.0119,0.0079,0.0067,-0.0066,0.0023,0.0016,0.0011,0.0007,0.0023,0.0028,0,0,0,0,0,0,0.0687,0.0663,0.0431,0.0422,0.0413,0.0243,0.0313,0.0136,0.0203,0.0293,0.021,0.0212,0.0122,0.0109,0.0071,-0.0058,-0.0064,0.0023,0.0018,0.0014,0.0012,0,0,0,0,0,0,0,0.0676,0.0857,0.0474,0.0419,0.0411,0.0233,0.023,0.0227,0.0204,0.0206,0.0209,0.0211,0.0065,0.0057,0.0049,-0.0051,0,0,0.0023,0.002,0,0,0,0,0,0,0,0,0.0865,0.0859,0.0473,0.0469,0.0466,0.0233,0.023,0.0228,0.0204,0.0206,0.0208,0.021,0.0062,0.0056,0.0049,0,0,0,0,0,0,0,0,0,0,0,0,0,0,0,0.0473,0.047,0,0.0232,0.0231,0.0229,0.0205,0.0206,0.0208,0.0209,0.0061,0.0055,0.005,0,0,0,0,0,0,0,0,0,0,0,0,0,0,0,0,0,0,0,0,0,0,0,0,0,0,0,0,0,0,0,0,0,0,0,0,0,0,0,0,0,0,0,0,0,0,0,0,0,0,0,0,0,0,0,0,0,0,0,0,0,0,0,0,0,0,0,0,0]}]],[[{"header":{"parameterUnit":"kt","parameterCategory":2,"dx":1,"dy":1,"la1":30.253999710083008,"la2":30.299108505249023,"lo1":-89.0895004272461,"lo2":-89.04439544677734,"nx":28,"ny":28,"refTime":"2022-10-22T21:00:00:Z","depth":"2","parameterNumber":2,"parameterNumberName":"U-component_of_CURRENTS"},"data":[0.1918,0.188,0.1889,0.1896,0.1989,0.2042,0.2097,0.2162,0.2235,0.2205,0.2253,0.2464,0.2655,0.2325,0.2301,0.221,0.2348,0.2109,0.2775,0.2828,0.287,0.3004,0.294,0,0,0,0,0,0.1974,0.1986,0.2015,0.2108,0.2128,0.2281,0.2352,0.2383,0.2479,0.2579,0.2726,0.2585,0.2633,0.2741,0.2631,0.2619,0.2598,0.2506,0.2506,0.2559,0.2605,0.2524,0.2094,0.2091,0.2088,0.2085,0,0,0.2084,0.2073,0.2191,0.2282,0.2374,0.2424,0.2455,0.2585,0.2669,0.2811,0.2976,0.3105,0.318,0.317,0.3086,0.3031,0.3284,0.3172,0.3191,0.3216,0.3164,0.3048,0.2905,0.2908,0.291,0.2913,0.2915,0,0.2197,0.2283,0.2353,0.247,0.257,0.2649,0.2787,0.2797,0.3027,0.3118,0.3243,0.3378,0.349,0.3479,0.3484,0.3466,0.3534,0.3407,0.3801,0.3437,0.3319,0.323,0.3239,0.3244,0.3249,0.3253,0.3255,0.3257,0.2381,0.24,0.2616,0.2668,0.2782,0.2903,0.2967,0.3167,0.3227,0.3433,0.3432,0.3595,0.3698,0.3736,0.3756,0.3799,0.3887,0.3521,0.3578,0.3856,0.3767,0.3755,0.3744,0.3312,0.3305,0.3299,0.3295,0,0.2462,0.264,0.2705,0.2916,0.2988,0.3031,0.3225,0.3263,0.3432,0.3523,0.3585,0.3762,0.3867,0.3964,0.4033,0.4005,0.4014,0.3954,0.3652,0.3546,0.3775,0.3759,0.388,0.3876,0.3872,0.3869,0.3866,0,0.2699,0.2736,0.2978,0.2984,0.307,0.3202,0.3308,0.3408,0.3558,0.3615,0.3835,0.3877,0.4054,0.408,0.4102,0.4052,0.4145,0.4021,0.3944,0.3741,0.3702,0.3947,0.3917,0.4215,0.4215,0.4216,0.4216,0,0.2809,0.2924,0.304,0.3062,0.3184,0.328,0.3372,0.3521,0.358,0.377,0.3772,0.4001,0.4007,0.4121,0.4064,0.4075,0.4103,0.4086,0.3933,0.3914,0.3668,0.362,0.4217,0.4217,0.4217,0.4217,0.4217,0,0.2949,0.3015,0.3108,0.32,0.3201,0.3261,0.3395,0.3478,0.3623,0.3652,0.3812,0.3837,0.4008,0.3928,0.4061,0.4014,0.3971,0.3929,0.3925,0.3724,0.3525,0.3278,0.343,0.3739,0.3736,0.3734,0.3732,0,0.3015,0.3061,0.3161,0.3193,0.3179,0.3247,0.3339,0.3409,0.3473,0.3524,0.3626,0.3678,0.3681,0.3677,0.3782,0.3731,0.3806,0.3747,0.3634,0.3629,0.3487,0.3702,0.3472,0.3406,0.3701,0.3704,0.3707,0,0.301,0.3122,0.3111,0.3141,0.3175,0.3115,0.325,0.3314,0.3377,0.3379,0.3487,0.3567,0.3544,0.3551,0.3526,0.359,0.3734,0.3476,0.3473,0.3448,0.3816,0.3668,0.3673,0.372,0.3726,0.3731,0.3682,0,0.3053,0.3118,0.3094,0.3148,0.3132,0.3091,0.3097,0.3101,0.3124,0.3132,0.3235,0.3168,0.3191,0.3209,0.3153,0.3349,0.3246,0.3195,0.3077,0.3262,0.32,0.322,0.291,0.2905,0.2901,0.2898,0,0,0.3029,0.3123,0.3109,0.3087,0.3088,0.3018,0.3024,0.3009,0.2915,0.296,0.2896,0.292,0.2852,0.2991,0.3057,0.297,0.2943,0.293,0.315,0.3179,0.3205,0.316,0.3184,0.2891,0.2889,0.2888,0.2887,0,0.3033,0.3099,0.3145,0.3091,0.302,0.2984,0.2985,0.2875,0.2896,0.2857,0.2862,0.2879,0.2745,0.2789,0.2788,0.2902,0.2802,0.2887,0.3044,0.3113,0.3147,0.3177,0.3139,0.3164,0.2877,0.2877,0.2878,0,0.303,0.3053,0.3107,0.3081,0.301,0.2978,0.2922,0.284,0.2885,0.2732,0.2747,0.2698,0.2637,0.2637,0.2627,0.2553,0.2648,0.2575,0.2595,0.2625,0.269,0.2729,0.2764,0.2321,0.232,0.2319,0,0,0.3015,0.3098,0.304,0.3072,0.3029,0.2946,0.2896,0.2865,0.2782,0.2757,0.268,0.2631,0.2626,0.2578,0.2517,0.2456,0.2421,0.2515,0.2541,0.2563,0.2606,0.2676,0.2713,0.2314,0.2314,0.2314,0,0,0.297,0.3011,0.3057,0.3093,0.3013,0.2871,0.2822,0.2814,0.2742,0.2761,0.2663,0.2634,0.2636,0.2523,0.2483,0.2517,0.2402,0.2403,0.2594,0.2623,0.2649,0.2728,0.2393,0,0,0,0,0,0.2986,0.3015,0.3059,0.3062,0.3009,0.2875,0.2848,0.2794,0.2833,0.2796,0.275,0.268,0.2516,0.2475,0.2434,0.2528,0.2261,0.227,0.2279,0.2512,0.2546,0.2574,0,0,0,0,0,0,0.2987,0.2996,0.3053,0.294,0.2924,0.2876,0.2884,0.2865,0.2835,0.2836,0.2695,0.2673,0.2583,0.2487,0.2452,0.2547,0.2404,0.2265,0.2273,0.228,0.2523,0.2551,0.2575,0,0,0,0,0,0.2986,0.2993,0.297,0.2932,0.2919,0.2836,0.2888,0.2872,0.2852,0.2702,0.2682,0.2825,0.2582,0.2549,0.2465,0.2568,0.2427,0.2415,0.227,0.2276,0.2282,0.2537,0,0,0,0,0,0,0.2985,0.293,0.2961,0.2947,0.2974,0.2835,0.283,0.2879,0.2718,0.2699,0.2822,0.2825,0.258,0.2555,0.253,0.2587,0.2447,0.2434,0.2426,0.2275,0.228,0.2284,0,0,0,0,0,0,0.2924,0.2921,0.2953,0.3011,0.3002,0.2834,0.2831,0.269,0.2716,0.2845,0.2844,0.2825,0.2623,0.2559,0.2539,0.2316,0.2461,0.2449,0.244,0.2435,0.2279,0.2283,0,0,0,0,0,0,0.2918,0.2914,0.3013,0.3007,0.3,0.2834,0.2701,0.2655,0.2772,0.2852,0.2781,0.2786,0.2626,0.2605,0.2545,0.2331,0.232,0.2461,0.2452,0.2446,0.2443,0,0,0,0,0,0,0,0.2912,0.3,0.3052,0.3004,0.2998,0.282,0.2815,0.2811,0.2773,0.2777,0.278,0.2784,0.2531,0.2518,0.2504,0.2343,0,0,0.2462,0.2456,0,0,0,0,0,0,0,0,0.2995,0.2999,0.3051,0.3049,0.3046,0.2819,0.2815,0.2812,0.2773,0.2776,0.278,0.2782,0.2527,0.2517,0.2506,0,0,0,0,0,0,0,0,0,0,0,0,0,0,0,0.3051,0.3049,0,0.2819,0.2816,0.2812,0.2774,0.2776,0.2779,0.2781,0.2524,0.2515,0.2506,0,0,0,0,0,0,0,0,0,0,0,0,0,0,0,0,0,0,0,0,0,0,0,0,0,0,0,0,0,0,0,0,0,0,0,0,0,0,0,0,0,0,0,0,0,0,0,0,0,0,0,0,0,0,0,0,0,0,0,0,0,0,0,0,0,0,0,0,0]}],[{"header":{"parameterUnit":"kt","parameterCategory":2,"dx":1,"dy":1,"la1":30.253999710083008,"la2":30.299108505249023,"lo1":-89.0895004272461,"lo2":-89.04439544677734,"nx":28,"ny":28,"refTime":"2022-10-22T21:00:00:Z","depth":"2","parameterNumber":3,"parameterNumberName":"V-component_of_CURRENTS"},"data":[-0.0412,-0.036,-0.0332,-0.0152,-0.0061,0.0126,0.0265,0.0539,0.0721,0.1002,0.1076,0.1087,0.0549,0.0253,-0.0192,-0.0483,-0.0593,-0.0541,-0.0763,-0.0521,-0.0523,-0.0865,-0.06,0,0,0,0,0,-0.0439,-0.0403,-0.035,-0.0263,-0.0155,-0.0132,0.0047,0.0216,0.05,0.0658,0.082,0.0626,0.0402,-0.004,-0.0508,-0.0841,-0.0795,-0.1008,-0.0846,-0.0853,-0.0859,-0.0686,-0.0789,-0.079,-0.079,-0.0791,0,0,-0.047,-0.0448,-0.0405,-0.0356,-0.0282,-0.0163,-0.0065,0.0088,0.0233,0.0445,0.0374,0.0456,0.0125,-0.0256,-0.0613,-0.1002,-0.0993,-0.1109,-0.1105,-0.1104,-0.095,-0.0886,-0.1118,-0.112,-0.1121,-0.1123,-0.1124,0,-0.0474,-0.0462,-0.0438,-0.0385,-0.0329,-0.0264,-0.0162,-0.0121,-0.0012,0.0043,0.0136,0.0184,-0.0159,-0.03,-0.0759,-0.0916,-0.1101,-0.1187,-0.1339,-0.0758,-0.0692,-0.0705,-0.0684,-0.0909,-0.091,-0.0911,-0.0911,-0.0912,-0.041,-0.0451,-0.0398,-0.0367,-0.0304,-0.0276,-0.0219,-0.0162,-0.0087,-0.0062,-0.003,-0.0152,-0.0094,-0.0589,-0.0764,-0.1048,-0.1115,-0.1201,-0.0978,-0.1009,-0.1031,-0.0998,-0.0967,-0.0922,-0.0921,-0.092,-0.0919,0,-0.0366,-0.0307,-0.0332,-0.0264,-0.0245,-0.0251,-0.0124,-0.011,-0.0093,-0.0031,-0.0002,0.0001,-0.0155,-0.0327,-0.0619,-0.072,-0.0966,-0.1073,-0.0872,-0.0894,-0.0968,-0.094,-0.1278,-0.1282,-0.1284,-0.1287,-0.1288,0,-0.0179,-0.0224,-0.0109,-0.0143,-0.0161,-0.0082,-0.0072,-0.0037,0.002,0.0063,0.0136,0.0125,0.0022,-0.0144,-0.0261,-0.0557,-0.0601,-0.0677,-0.0734,-0.0552,-0.0537,-0.0623,-0.061,-0.0708,-0.0705,-0.0702,-0.07,0,-0.0015,-0.0006,-0.0006,-0.001,0.0046,0.0065,0.0109,0.0169,0.0192,0.0215,0.0187,0.0169,0.0091,-0.0033,-0.0184,-0.0095,-0.0538,-0.0458,-0.0626,-0.063,-0.0626,-0.0621,-0.0696,-0.0696,-0.0695,-0.0694,-0.0693,0,0.0179,0.0187,0.0176,0.018,0.0153,0.0184,0.0173,0.0219,0.0253,0.0245,0.0256,0.0282,0.0227,0.0232,-0.0014,0.011,-0.003,-0.0164,-0.0181,-0.028,-0.0283,-0.045,-0.0473,-0.0389,-0.0384,-0.0381,-0.0377,0,0.0269,0.0255,0.0359,0.0308,0.0242,0.0271,0.033,0.033,0.0348,0.032,0.0298,0.0293,0.0329,0.0313,0.0249,0.012,0.0009,0.0181,-0.0217,-0.0232,-0.0241,-0.0259,-0.0085,-0.0413,-0.0328,-0.0333,-0.0337,0,0.0319,0.0412,0.0381,0.0353,0.0351,0.0274,0.0363,0.0326,0.0307,0.0303,0.0273,0.0324,0.0272,0.0267,0.0267,0.0176,0.008,0.0154,0.0144,-0.0019,-0.0199,-0.0194,-0.0228,0.0101,0.0097,0.0094,-0.0297,0,0.0363,0.0404,0.0382,0.0397,0.0372,0.0287,0.0268,0.0254,0.025,0.023,0.022,0.0188,0.016,0.0194,0.021,0.0185,0.0127,0.0127,0.0028,0.0077,-0.01,-0.013,0.0173,0.0169,0.0167,0.0164,0,0,0.0314,0.0403,0.0412,0.0378,0.0329,0.0238,0.0197,0.0198,0.0113,0.0098,0.0105,0.0074,0.006,0.0082,0.0155,0.014,0.0046,0.0115,0.0083,0.0076,0.0067,-0.0098,-0.0124,0.0159,0.0158,0.0157,0.0156,0,0.0312,0.0392,0.0443,0.038,0.026,0.0218,0.0192,0.0077,0.0082,0.0069,0.0069,0.0048,0.0041,0.0039,0.0043,0.0107,-0.0017,0.0148,0.0176,0.0065,0.0062,0.0057,-0.0105,-0.0126,0.015,0.015,0.015,0,0.0272,0.0284,0.0349,0.0324,0.0242,0.0199,0.0127,0.0036,0.0052,-0.0029,0.0001,-0.002,-0.0043,-0.0013,-0.0016,-0.0059,-0.0116,-0.0041,-0.0028,-0.0094,-0.0217,-0.0219,-0.0221,-0.0209,-0.021,-0.021,0,0,0.0231,0.0335,0.0248,0.0303,0.0248,0.0146,0.0097,0.0055,-0.0005,-0.0012,-0.0044,-0.0063,-0.0052,-0.0069,-0.0089,-0.011,-0.0243,-0.0078,-0.0062,-0.0047,-0.0103,-0.0222,-0.0223,-0.0213,-0.0213,-0.0213,0,0,0.0178,0.0204,0.0218,0.0294,0.0197,0.0074,0.0042,0.0006,-0.0016,-0.0009,-0.0051,-0.0062,-0.0049,-0.0112,-0.0132,-0.0092,-0.0169,-0.0168,-0.0034,-0.0015,0.0001,-0.0051,-0.0175,0,0,0,0,0,0.0126,0.0201,0.0215,0.0216,0.0196,0.0077,0.006,0.0013,0.0014,0.0005,-0.0007,-0.005,-0.01,-0.012,-0.0142,-0.0084,-0.0241,-0.0236,-0.0231,-0.0065,-0.0043,-0.0025,0,0,0,0,0,0,0.0125,0.0137,0.0207,0.0107,0.0096,0.008,0.0083,0.0071,0.0016,0.0019,-0.0043,-0.0052,-0.0078,-0.0115,-0.0133,-0.0075,-0.0169,-0.0239,-0.0235,-0.0231,-0.0057,-0.004,-0.0024,0,0,0,0,0,0.0124,0.0132,0.0156,0.0101,0.0092,0.0013,0.0087,0.0076,0.0055,-0.0028,-0.0036,0.002,-0.0078,-0.0095,-0.0126,-0.0064,-0.0157,-0.0164,-0.0236,-0.0233,-0.023,-0.0049,0,0,0,0,0,0,0.0122,0.0116,0.0148,0.0135,0.012,0.0013,0.0014,0.0082,0.0014,0.0,0.0032,0.0035,-0.0079,-0.0092,-0.0105,-0.0053,-0.0148,-0.0154,-0.0158,-0.0234,-0.0231,-0.0229,0,0,0,0,0,0,0.0107,0.011,0.0143,0.0171,0.0162,0.0012,0.0014,-0.0059,0.0014,0.0083,0.0079,0.0034,-0.0069,-0.009,-0.01,-0.0216,-0.014,-0.0146,-0.0151,-0.0154,-0.0232,-0.023,0,0,0,0,0,0,0.0104,0.0105,0.0176,0.0169,0.0161,0.0029,-0.0058,-0.0063,0.0019,0.0089,0.0024,0.0026,-0.0068,-0.0078,-0.0097,-0.0208,-0.0214,-0.014,-0.0145,-0.0148,-0.015,0,0,0,0,0,0,0,0.01,0.0153,0.0203,0.0167,0.016,0.0013,0.0012,0.001,0.0019,0.0022,0.0024,0.0025,-0.0104,-0.0111,-0.0118,-0.0202,0,0,-0.014,-0.0143,0,0,0,0,0,0,0,0,0.0146,0.0151,0.0202,0.0199,0.0195,0.0013,0.0012,0.0011,0.002,0.0021,0.0023,0.0025,-0.0106,-0.0111,-0.0117,0,0,0,0,0,0,0,0,0,0,0,0,0,0,0,0.0202,0.0199,0,0.0013,0.0012,0.0011,0.002,0.0021,0.0023,0.0024,-0.0107,-0.0112,-0.0117,0,0,0,0,0,0,0,0,0,0,0,0,0,0,0,0,0,0,0,0,0,0,0,0,0,0,0,0,0,0,0,0,0,0,0,0,0,0,0,0,0,0,0,0,0,0,0,0,0,0,0,0,0,0,0,0,0,0,0,0,0,0,0,0,0,0,0,0,0]}]],[[{"header":{"parameterUnit":"kt","parameterCategory":2,"dx":1,"dy":1,"la1":30.253999710083008,"la2":30.299108505249023,"lo1":-89.0895004272461,"lo2":-89.04439544677734,"nx":28,"ny":28,"refTime":"2022-10-22T21:00:00:Z","depth":"4","parameterNumber":2,"parameterNumberName":"U-component_of_CURRENTS"},"data":[0.0907,0.0943,0.0948,0.0959,0.099,0.105,0.1096,0.1177,0.1164,0.1313,0.1372,0.1506,0.1621,0.1702,0.1752,0.1777,0.1837,0.2,0.1996,0.2176,0.2195,0.2212,0.1967,0,0,0,0,0,0.0939,0.094,0.0987,0.1022,0.1106,0.1156,0.1234,0.131,0.1439,0.142,0.1557,0.1591,0.1698,0.1782,0.1772,0.1914,0.206,0.1894,0.2037,0.2188,0.2209,0.1963,0,0,0,0,0,0,0.0964,0.0976,0.1036,0.1109,0.1192,0.1216,0.1293,0.1378,0.147,0.1687,0.1652,0.1836,0.2,0.2041,0.2025,0.2058,0.2059,0.2028,0.2057,0.2078,0.1858,0.1747,0.1719,0,0,0,0,0,0.0988,0.1045,0.109,0.1159,0.1264,0.1341,0.1486,0.1517,0.1716,0.1881,0.1923,0.1996,0.2083,0.216,0.2218,0.2197,0.2392,0.2334,0.2346,0.2246,0.2196,0.219,0.2185,0.229,0.2293,0.2294,0.2295,0,0.103,0.1061,0.1173,0.1217,0.1317,0.1482,0.1571,0.1785,0.186,0.2072,0.207,0.2237,0.2282,0.2297,0.236,0.2409,0.2334,0.2389,0.2281,0.2228,0.222,0.2209,0.2197,0.2312,0.2311,0.231,0.2308,0,0.105,0.1115,0.1183,0.1335,0.1395,0.15,0.1727,0.1828,0.2029,0.2135,0.2186,0.2344,0.2393,0.2471,0.255,0.2466,0.2451,0.2393,0.2521,0.2523,0.2239,0.222,0.2341,0.2334,0.2329,0.2325,0.2321,0,0.1095,0.1152,0.128,0.1324,0.1423,0.1587,0.1737,0.187,0.2063,0.2121,0.2267,0.2277,0.2403,0.2441,0.2405,0.2353,0.2498,0.2262,0.2263,0.2358,0.2342,0.2416,0.2404,0.25,0.2498,0.2496,0.2494,0,0.1107,0.122,0.1281,0.1346,0.1508,0.1607,0.1739,0.1919,0.1988,0.2179,0.2217,0.2298,0.2347,0.2367,0.2311,0.2281,0.241,0.2401,0.2237,0.2226,0.24,0.2391,0.2492,0.2491,0.2491,0.249,0.2489,0,0.1177,0.1201,0.1288,0.1414,0.1471,0.1587,0.18,0.188,0.2046,0.2062,0.2126,0.2117,0.2197,0.2081,0.219,0.2113,0.2124,0.2139,0.2149,0.1989,0.1945,0.2229,0.2262,0.2258,0.2256,0.2253,0.2251,0,0.116,0.1219,0.1292,0.1419,0.1496,0.1671,0.1732,0.1863,0.1926,0.1992,0.2002,0.2003,0.1905,0.1901,0.1929,0.1951,0.2019,0.1904,0.2128,0.2137,0.1944,0.1927,0.1952,0.2211,0.2216,0.222,0.2222,0,0.1154,0.1273,0.1293,0.1377,0.1569,0.1627,0.1735,0.1853,0.1944,0.1906,0.1952,0.1868,0.1856,0.1874,0.1861,0.1914,0.1967,0.1889,0.1894,0.2005,0.214,0.1911,0.1913,0.1937,0.194,0.1942,0.2195,0,0.1189,0.1274,0.1293,0.143,0.1525,0.161,0.1705,0.179,0.1823,0.1846,0.1836,0.1779,0.1794,0.1771,0.1742,0.1816,0.1841,0.1821,0.1915,0.1901,0.2011,0.2032,0.1806,0.1808,0.1809,0.181,0,0,0.119,0.124,0.1328,0.1389,0.1459,0.1622,0.1692,0.1774,0.1815,0.1833,0.1773,0.1755,0.1759,0.1819,0.1762,0.176,0.1816,0.1855,0.1885,0.1893,0.1901,0.2005,0.2024,0.1812,0.1812,0.1813,0.1813,0,0.1144,0.1279,0.1307,0.1393,0.152,0.1591,0.1638,0.1717,0.1777,0.1776,0.1777,0.1765,0.1759,0.1781,0.1797,0.1767,0.1874,0.1765,0.1827,0.1892,0.1898,0.1904,0.2007,0.2023,0.1816,0.1816,0.1816,0,0.1177,0.1206,0.1238,0.1344,0.1441,0.1522,0.1572,0.1684,0.1738,0.1758,0.181,0.1773,0.18,0.179,0.181,0.1864,0.1962,0.1907,0.1901,0.1952,0.2025,0.203,0.2034,0.1983,0.1983,0.1984,0,0,0.1162,0.12,0.1274,0.1332,0.139,0.1514,0.1589,0.1668,0.1708,0.1775,0.1786,0.1819,0.181,0.1859,0.184,0.1894,0.1972,0.1925,0.1917,0.191,0.1956,0.2027,0.2031,0.1985,0.1985,0.1985,0,0,0.1116,0.1156,0.1248,0.1311,0.1398,0.1456,0.1554,0.1639,0.1747,0.1787,0.1808,0.1817,0.1816,0.1875,0.1881,0.1912,0.1946,0.1946,0.1887,0.1878,0.1871,0.1917,0.194,0,0,0,0,0,0.1089,0.1128,0.1211,0.1229,0.1375,0.1422,0.1456,0.1583,0.1665,0.1755,0.1768,0.1836,0.1854,0.1858,0.1875,0.1902,0.2001,0.1998,0.1995,0.1925,0.1915,0.1906,0,0,0,0,0,0,0.1095,0.111,0.1207,0.1248,0.1282,0.1422,0.1467,0.1507,0.1659,0.1681,0.1823,0.1835,0.1839,0.1856,0.187,0.1895,0.1936,0.2,0.1997,0.1995,0.1921,0.1913,0.1906,0,0,0,0,0,0.1099,0.1112,0.1308,0.1254,0.1283,0.1438,0.147,0.1504,0.1683,0.1688,0.1716,0.1776,0.1837,0.1853,0.1865,0.1887,0.1927,0.1932,0.1998,0.1996,0.1995,0.1917,0,0,0,0,0,0,0.1103,0.1202,0.1319,0.1334,0.1249,0.144,0.1471,0.1499,0.1688,0.1712,0.1626,0.1637,0.1835,0.1848,0.186,0.1881,0.192,0.1925,0.1928,0.1997,0.1995,0.1994,0,0,0,0,0,0,0.1193,0.1214,0.1328,0.1316,0.1332,0.1441,0.1468,0.151,0.1685,0.1621,0.1634,0.1627,0.1759,0.1845,0.1854,0.1922,0.1915,0.1919,0.1922,0.1925,0.1995,0.1994,0,0,0,0,0,0,0.1205,0.1224,0.1315,0.1327,0.1343,0.1547,0.1481,0.1611,0.173,0.1611,0.1733,0.1734,0.1749,0.1766,0.185,0.1913,0.192,0.1915,0.1918,0.192,0.1922,0,0,0,0,0,0,0,0.1216,0.1048,0.1195,0.1337,0.1351,0.147,0.1477,0.1484,0.173,0.1731,0.1732,0.1733,0.1888,0.1893,0.1899,0.1906,0,0,0.1914,0.1917,0,0,0,0,0,0,0,0,0.1044,0.1047,0.1195,0.1197,0.1198,0.1471,0.1477,0.1483,0.173,0.1731,0.1732,0.1733,0.189,0.1894,0.1898,0,0,0,0,0,0,0,0,0,0,0,0,0,0,0,0.1195,0.1197,0,0.1472,0.1477,0.1482,0.173,0.1731,0.1732,0.1733,0.1891,0.1894,0.1898,0,0,0,0,0,0,0,0,0,0,0,0,0,0,0,0,0,0,0,0,0,0,0,0,0,0,0,0,0,0,0,0,0,0,0,0,0,0,0,0,0,0,0,0,0,0,0,0,0,0,0,0,0,0,0,0,0,0,0,0,0,0,0,0,0,0,0,0,0]}],[{"header":{"parameterUnit":"kt","parameterCategory":2,"dx":1,"dy":1,"la1":30.253999710083008,"la2":30.299108505249023,"lo1":-89.0895004272461,"lo2":-89.04439544677734,"nx":28,"ny":28,"refTime":"2022-10-22T21:00:00:Z","depth":"4","parameterNumber":3,"parameterNumberName":"V-component_of_CURRENTS"},"data":[0.0343,0.0403,0.0451,0.0528,0.0583,0.068,0.0753,0.0801,0.0795,0.0821,0.0697,0.0652,0.0417,0.0553,0.0174,0.0127,-0.0125,-0.0158,-0.0163,-0.0574,-0.0586,-0.0598,-0.0666,0,0,0,0,0,0.0363,0.0402,0.0471,0.0565,0.0653,0.0703,0.081,0.0846,0.0895,0.0876,0.084,0.0728,0.0471,0.0371,0.0196,0.016,-0.0216,-0.0054,-0.0401,-0.0582,-0.0596,-0.0657,0,0,0,0,0,0,0.0398,0.0432,0.0498,0.0574,0.0657,0.0734,0.0776,0.0776,0.0826,0.0805,0.0824,0.0647,0.0532,0.0272,0.0187,0.0015,-0.0184,-0.0332,-0.0358,-0.0374,-0.0381,-0.0339,-0.0038,0,0,0,0,0,0.0405,0.0446,0.0475,0.0577,0.0608,0.068,0.0664,0.0747,0.0669,0.0693,0.0655,0.0497,0.0424,0.0126,0.0051,-0.0149,-0.0483,-0.0427,-0.0443,-0.0767,-0.0763,-0.0755,-0.0772,-0.0649,-0.0651,-0.0652,-0.0653,0,0.0381,0.0425,0.0482,0.0518,0.0465,0.0489,0.0502,0.0431,0.0437,0.0435,0.045,0.0362,0.0182,0.0107,-0.0163,-0.0387,-0.0451,-0.0458,-0.0801,-0.0788,-0.0773,-0.0786,-0.0799,-0.0664,-0.0663,-0.0662,-0.0662,0,0.0363,0.0335,0.0375,0.034,0.0345,0.0357,0.0316,0.0337,0.0244,0.0258,0.0195,-0.0008,-0.0141,-0.0321,-0.0461,-0.0617,-0.068,-0.066,-0.0724,-0.0703,-0.0815,-0.0823,-0.0683,-0.0679,-0.0675,-0.0672,-0.067,0,0.0237,0.0266,0.0193,0.0211,0.0274,0.0129,0.017,0.0042,-0.0025,-0.0014,-0.0309,-0.0297,-0.0637,-0.0647,-0.0823,-0.086,-0.0853,-0.1001,-0.0971,-0.1134,-0.114,-0.1042,-0.1038,-0.1086,-0.1087,-0.1088,-0.1089,0,0.0155,0.0068,0.0098,0.0073,-0.0026,-0.0047,-0.0131,-0.0247,-0.0257,-0.044,-0.0427,-0.0634,-0.0691,-0.0827,-0.0962,-0.1069,-0.0951,-0.1085,-0.1022,-0.1014,-0.1047,-0.1041,-0.1091,-0.1091,-0.1091,-0.1091,-0.1092,0,-0.0037,-0.0042,-0.0078,-0.0086,-0.0098,-0.0195,-0.0198,-0.0328,-0.0472,-0.0562,-0.0704,-0.0809,-0.0951,-0.1073,-0.116,-0.1188,-0.1224,-0.1237,-0.1231,-0.1062,-0.1039,-0.1057,-0.114,-0.1141,-0.1142,-0.1144,-0.1145,0,-0.002,-0.0084,-0.0167,-0.0234,-0.0247,-0.0363,-0.0458,-0.0582,-0.0707,-0.0778,-0.0926,-0.0998,-0.1178,-0.1193,-0.1275,-0.1262,-0.1288,-0.1342,-0.1145,-0.1137,-0.1058,-0.1108,-0.1311,-0.116,-0.1158,-0.1157,-0.1156,0,0.002,-0.0118,-0.0113,-0.0115,-0.0285,-0.0313,-0.051,-0.0595,-0.0624,-0.0902,-0.0908,-0.1129,-0.1164,-0.1175,-0.1216,-0.1249,-0.1306,-0.1244,-0.1238,-0.1182,-0.1219,-0.1136,-0.1118,-0.1315,-0.1314,-0.1313,-0.1167,0,0.0005,-0.0025,-0.0079,-0.0176,-0.024,-0.0324,-0.0454,-0.0587,-0.073,-0.082,-0.0936,-0.1053,-0.1094,-0.1162,-0.1194,-0.1227,-0.1171,-0.116,-0.1087,-0.1164,-0.1088,-0.1081,-0.112,-0.1116,-0.1113,-0.1111,0,0,0.0125,0.009,0.0051,-0.0025,-0.0048,-0.0184,-0.0254,-0.0405,-0.0611,-0.064,-0.0749,-0.0889,-0.0965,-0.0995,-0.1079,-0.1103,-0.105,-0.1076,-0.1135,-0.1139,-0.1142,-0.1074,-0.107,-0.1106,-0.1105,-0.1104,-0.1103,0,0.0162,0.0153,0.0097,0.004,-0.007,-0.0134,-0.0188,-0.035,-0.0463,-0.0645,-0.0681,-0.0777,-0.091,-0.0925,-0.0939,-0.1062,-0.0977,-0.1078,-0.1137,-0.1113,-0.1121,-0.1127,-0.1063,-0.1062,-0.1096,-0.1096,-0.1096,0,0.0249,0.0233,0.0209,0.0148,0.0056,-0.0039,-0.0072,-0.0222,-0.0336,-0.0368,-0.0602,-0.0645,-0.0659,-0.0778,-0.0833,-0.0797,-0.0893,-0.0904,-0.0917,-0.0863,-0.0831,-0.0841,-0.085,-0.0731,-0.073,-0.073,0,0,0.0283,0.0256,0.021,0.0153,0.0115,-0.0008,-0.008,-0.0176,-0.03,-0.0385,-0.0487,-0.0571,-0.0622,-0.0684,-0.0728,-0.0826,-0.0747,-0.0867,-0.0884,-0.0898,-0.0854,-0.0825,-0.0835,-0.0728,-0.0728,-0.0728,0,0,0.0271,0.0246,0.0231,0.0186,0.0103,-0.0013,-0.0103,-0.0181,-0.0344,-0.0407,-0.0452,-0.0477,-0.0613,-0.0601,-0.0575,-0.0715,-0.0633,-0.064,-0.0762,-0.0782,-0.0799,-0.0739,-0.0536,0,0,0,0,0,0.0301,0.0274,0.0263,0.0251,0.0128,0.0026,-0.0004,-0.0134,-0.0214,-0.0292,-0.0412,-0.0398,-0.0595,-0.0573,-0.0586,-0.0659,-0.0701,-0.0706,-0.0711,-0.0887,-0.0909,-0.0927,0,0,0,0,0,0,0.0296,0.0284,0.0263,0.0169,0.014,0.0026,-0.003,-0.0069,-0.021,-0.0234,-0.0379,-0.0397,-0.0416,-0.0565,-0.0577,-0.0647,-0.0531,-0.0703,-0.0707,-0.0711,-0.0894,-0.0912,-0.0928,0,0,0,0,0,0.0292,0.0282,0.0129,0.0164,0.0139,-0.0018,-0.0033,-0.0066,-0.0226,-0.0258,-0.0288,-0.0327,-0.0412,-0.0431,-0.0572,-0.0643,-0.0523,-0.0527,-0.0706,-0.0709,-0.0712,-0.0903,0,0,0,0,0,0,0.0288,0.0212,0.0118,0.0104,0.0149,-0.0021,-0.0049,-0.0064,-0.0248,-0.0276,-0.0193,-0.0207,-0.0409,-0.0424,-0.0438,-0.0643,-0.0516,-0.0521,-0.0523,-0.0708,-0.0711,-0.0713,0,0,0,0,0,0,0.0217,0.0201,0.011,0.0099,0.0081,-0.0024,-0.0048,-0.0084,-0.0247,-0.0178,-0.0193,-0.0196,-0.0356,-0.0419,-0.043,-0.0486,-0.051,-0.0515,-0.0518,-0.052,-0.071,-0.0712,0,0,0,0,0,0,0.0207,0.0192,0.01,0.0087,0.0071,-0.0114,-0.0059,-0.0171,-0.0283,-0.0168,-0.029,-0.0294,-0.0345,-0.0362,-0.0424,-0.0474,-0.0483,-0.0511,-0.0514,-0.0516,-0.0517,0,0,0,0,0,0,0,0.0198,0.034,0.0224,0.0077,0.0062,-0.0023,-0.0029,-0.0035,-0.0283,-0.0286,-0.0289,-0.0292,-0.0485,-0.049,-0.0495,-0.0465,0,0,-0.051,-0.0512,0,0,0,0,0,0,0,0,0.0342,0.0341,0.0224,0.0222,0.022,-0.0024,-0.0029,-0.0034,-0.0284,-0.0286,-0.0289,-0.0291,-0.0486,-0.049,-0.0494,0,0,0,0,0,0,0,0,0,0,0,0,0,0,0,0.0224,0.0222,0,-0.0025,-0.0029,-0.0033,-0.0284,-0.0286,-0.0288,-0.029,-0.0487,-0.0491,-0.0494,0,0,0,0,0,0,0,0,0,0,0,0,0,0,0,0,0,0,0,0,0,0,0,0,0,0,0,0,0,0,0,0,0,0,0,0,0,0,0,0,0,0,0,0,0,0,0,0,0,0,0,0,0,0,0,0,0,0,0,0,0,0,0,0,0,0,0,0,0]}]]]